This is the latest recevied weather packets stored in our database for station/object JS1SZZ-13. If no packets are shown the sender has not sent any weather packets the latest 10 day(s).
| Time | Temp. | Humidity | Pressure | Rain* | Wind** | Luminosity | Snow |
|---|---|---|---|---|---|---|---|
| 1777117697 | 9.44° C | 77% | 1020.4 hPa | 0 mm | - | - | - |
| 1777116796 | 9.44° C | 77% | 1020.4 hPa | 0 mm | - | - | - |
| 1777115898 | 9.44° C | 76% | 1020.4 hPa | 0 mm | - | - | - |
| 1777114997 | 9.44° C | 74% | 1019.9 hPa | 0 mm | - | - | - |
| 1777114096 | 9.44° C | 72% | 1019.9 hPa | 0 mm | - | - | - |
| 1777113198 | 10° C | 71% | 1019.7 hPa | 0 mm | - | - | - |
| 1777112297 | 10.56° C | 70% | 1019.3 hPa | 0 mm | - | - | - |
| 1777111397 | 11.11° C | 67% | 1019.4 hPa | 0 mm | - | - | - |
| 1777110498 | 12.22° C | 65% | 1019 hPa | 0 mm | - | - | - |
| 1777109597 | 12.78° C | 61% | 1018.8 hPa | 0 mm | - | - | - |
| 1777108697 | 13.33° C | 53% | 1018.7 hPa | 0 mm | - | - | - |
| 1777107796 | 13.89° C | 51% | 1018.6 hPa | 0 mm | - | - | - |
| 1777106898 | 14.44° C | 50% | 1018.3 hPa | 0 mm | - | - | - |
| 1777105998 | 15° C | 48% | 1018.4 hPa | 0 mm | - | - | - |
| 1777105097 | 15.56° C | 47% | 1018.1 hPa | 0 mm | - | - | - |
| 1777104044 | 16.11° C | 46% | 1018.3 hPa | 0 mm | - | - | - |
| 1777103143 | 16.11° C | 46% | 1018 hPa | 0 mm | - | - | - |
| 1777102243 | 16.67° C | 46% | 1018 hPa | 0 mm | - | - | - |
| 1777101342 | 16.67° C | 46% | 1017.7 hPa | 0 mm | - | - | - |
| 1777100443 | 17.22° C | 43% | 1017.5 hPa | 0 mm | - | - | - |
| 1777099543 | 17.22° C | 46% | 1017.3 hPa | 0 mm | - | - | - |
| 1777098644 | 17.22° C | 45% | 1017.6 hPa | 0 mm | - | - | - |
| 1777097744 | 17.22° C | 46% | 1017.5 hPa | 0 mm | - | - | - |
| 1777096843 | 17.22° C | 46% | 1017.5 hPa | 0 mm | - | - | - |
| 1777095943 | 17.78° C | 43% | 1017.5 hPa | 0 mm | - | - | - |
* Rain latest hour (hover to see other rain measurements)
** Current wind speed in m/s (hover to see current wind gust speed)